Regional Weather Roundup
Issued by NWS

Home | Current Version | Previous Version | Text Only | Print | Product List | Glossary On
Versions: 1 2 3 4 5 6 7 8 9 10 11 12 13 14 15 16 17 18 19 20 21 22 23 24 25 26 27 28 29 30 31 32 33 34 35 36 37 38 39 40 41 42 43 44 45 46 47 48 49 50
000
ASUS43 KOAX 300310
RWRNE

WEATHER ROUNDUP FOR NEBRASKA
NATIONAL WEATHER SERVICE OMAHA NE
1000 PM CDT FRI JUL 29 2016

NOTES: SATELLITE DATA IS BEING USED TO AUGMENT CLOUD COVER ABOVE
       12000 FEET.
       "FAIR" INDICATES FEW OR NO CLOUDS BELOW 12,000 FEET WITH NO
       SIGNIFICANT WEATHER AND/OR OBSTRUCTIONS TO VISIBILITY.

  * THESE STATIONS DO NOT REPORT WEATHER SUCH AS RAIN...SNOW OR FOG.

NEZ001>004-019>022-054>056-300400-
NEBRASKA PANHANDLE

CITY           SKY/WX    TMP DP  RH WIND       PRES   REMARKS
SCOTTSBLUFF    PTCLDY    63  32  31 MISG      30.07R
ALLIANCE       CLOUDY    66  63  90 NE8       30.09R
CHADRON        CLOUDY    67  59  75 SE12      30.01F
KIMBALL        CLEAR     67  60  77 SE14      30.12F
SIDNEY         CLOUDY    66  59  78 E14       30.09F
$$

NEZ057>060-069>072-079>082-300400-
SOUTHWEST NEBRASKA

CITY           SKY/WX    TMP DP  RH WIND       PRES   REMARKS
NORTH PLATTE   MOCLDY    70  66  87 E6        30.05R
IMPERIAL       CLOUDY    72  64  76 CALM      30.07R
LEXINGTON      CLOUDY    72  64  76 E7        30.04S
MCCOOK         MOCLDY    73  64  73 E9        30.03R
OGALLALA       CLOUDY    71  64  77 CALM      30.07R
$$

NEZ005>010-023>029-035>040-094-300400-
NORTH CENTRAL NEBRASKA

CITY           SKY/WX    TMP DP  RH WIND       PRES   REMARKS
VALENTINE      CLEAR     69  62  78 E6        30.05R
AINSWORTH      PTCLDY    66  63  89 SE5       30.05R
BROKEN BOW     CLOUDY    67  64  90 SE5       30.05S
O`NEILL        CLOUDY    70  60  70 SE5       30.05S
ORD            PTCLDY    69  61  75 SE6       30.03S
THEDFORD       CLOUDY    70  64  79 SE6       30.07R
$$

NEZ041-046>049-061>064-073>077-083>087-300400-
SOUTH CENTRAL NEBRASKA

CITY           SKY/WX    TMP DP  RH WIND       PRES   REMARKS
GRAND ISLAND   CLEAR     69  63  81 SE3       30.05R
AURORA         CLEAR     67  65  93 E5        30.05R
HASTINGS       CLEAR     70  63  78 E7        30.05R
HEBRON         CLEAR     69  64  82 CALM      30.03R
HOLDREGE       CLEAR     69  65  86 E8        30.04S
KEARNEY *      CLEAR     68  64  88 E7        30.05S
YORK           LGT RAIN  66  63  88 CALM      30.05R
$$

NEZ011>018-030>034-042>045-300400-
NORTHEAST NEBRASKA

CITY           SKY/WX    TMP DP  RH WIND       PRES   REMARKS
NORFOLK        CLEAR     61  57  87 CALM      30.04R
ALBION         CLOUDY    65  59  80 NE6       30.04S
BLAIR          CLEAR     68  63  82 E5        30.04R
FREMONT        CLEAR     71  62  72 E7        30.04R
TEKAMAH        CLEAR     68  62  81 E3        30.03R
WAYNE          CLEAR     65  61  85 CALM      30.04S
$$

NEZ050>053-065>068-078-088>093-300400-
SOUTHEAST NEBRASKA

CITY           SKY/WX    TMP DP  RH WIND       PRES   REMARKS
LINCOLN        CLEAR     72  62  71 NE6       30.03R
OMAHA EPPLEY   PTCLDY    72  62  71 E8        30.03R
BEATRICE       PTCLDY    70  61  73 NE3       30.02S
FALLS CITY     CLEAR     69  65  86 CALM      30.00R
NEBRASKA CITY  CLEAR     67  65  95 NE3       30.03R
PLATTSMOUTH    CLEAR     68  64  84 NE5       30.03S
$$

NEZ044-045-051>053-067-300400-
OMAHA AREA

CITY           SKY/WX    TMP DP  RH WIND       PRES   REMARKS
OMAHA EPPLEY   PTCLDY    72  62  71 E8        30.03R
BLAIR          CLEAR     68  63  82 E5        30.04R
FREMONT        CLEAR     71  62  72 E7        30.04R
MILLARD        CLEAR     74  62  67 E6        30.03R
OFFUTT AFB     CLEAR     68  63  84 NE7       30.02R
PLATTSMOUTH    CLEAR     68  64  84 NE5       30.03S
WAHOO          FAIR      67  62  83 E6        30.02S
$$



USA.gov is the U.S. government's official web portal to all federal, state and local government web resources and services.